星链-36695(STARLINK-36695)

导读

STARLINK-36695是美国于2026年2月7日发射的星链卫星,星链是太空探索技术公司(SpaceX)打造的低轨卫星星座,旨在为全球提供高速互联网服务。该卫星加入星链星座后,将进一步扩展星座的覆盖范围与服务能力,提升全球尤其是偏远地区的网络接入水平。

Basic Information
目录编号:
67702
目录名称:
STARLINK-36695
国际标识:
2026-025K
轨道中心:
EARTH
卫星名称:
星链-36695
卫星全名:
星链-36695(STARLINK-36695)
卫星状态:
在轨 (已飞行210 天)
发射日期:
2026-02-07 UTC
国别 :
美国 (US)
星等 :
--
Orbit Information
数据来源 国际轨道数据
星历时间: 2026-09-05T14:13:40+0800
7小时前
查看轨道信息
半长轴: 6843.655km
偏心率: 0.0001356
轨道倾角: 97.283°
近地点辐角 99.434°
升交点赤经 358.428°
平近点角 260.705°
近地点: 464.59km
远地点: 466.446km
周期: 93.906分钟
每日圈数: 15.334535
Detailed Information
固有亮度:
5
最大亮度:
2.5
卫星平台:
Starlink V1.0
覆盖范围:
全球
运营商:
太空探索技术公司
运营商所在国:
美国
制造商(研发单位):
太空探索技术公司
制造商所在国:
美国
使用方式:
暂无
Satellite Introduction
Starlink 计划是 SpaceX 推出的全球卫星互联网项目,通过发射低轨道卫星,为全球尤其是偏远地区提供高速、低延迟的互联网服务。自 2019 年起,Starlink 已部署数千颗卫星,旨在缩小全球数字鸿沟,推动互联网普及。该项目还为军事、航空等行业提供通信支持,带来广泛经济效益。
2D Orbit Map
3D Orbit Map
Orbit Altitude Analysis Chart
Orbit Inclination Analysis Chart
Orbit Comprehensive Analysis Chart
View Comprehensive Chart
Conjunction Data List
Event ID Objects TCA Miss Dist (km) Collision Risk Probability Collision Risk Index (CRI) Action
CDM_260830-011205-925506-770221
2026-08-30T
01:12:39+0000
0.875 km
远距离
3.708618E-5 中风险 0.66
CDM_260906-233005-082906-770222
2026-09-06T
23:30:55+0000
2.510 km
极远距离
1.325541E-6 低风险 0.37
CDM_260906-151605-246906-770221
2026-09-06T
15:16:52+0000
2.637 km
极远距离
1.079195E-6 低风险 0.36